"read_dt","SO2 (ppb)","flags","PMT voltage (V)","lamp voltage (V)","lamp intensity (Hz)","internal temp (C)","react chamber temp (C)","sample flow (l/min)","pres (mmHg)","SO2 bkg (ppb)","SO2 coefficient"
2013-11-01 00:00:00,1005E-3,5C000000,-0724,0962,10957,025.0,045.3,0.386,709.5,01.21,0.508
2013-11-01 00:01:00,9105E-4,5C000000,-0724,0962,10951,025.0,045.2,0.386,709.5,01.21,0.508
2013-11-01 00:02:00,9819E-4,5C000000,-0724,0962,10889,025.0,045.2,0.386,709.5,01.21,0.508
2013-11-01 00:03:00,8362E-4,5C000000,-0724,0962,10892,025.0,045.2,0.386,709.5,01.21,0.508
2013-11-01 00:04:00,9766E-4,5C000000,-0724,0962,11007,025.0,045.3,0.386,709.5,01.21,0.508
2013-11-01 00:05:00,9543E-4,5C000000,-0724,0962,10884,025.0,045.2,0.386,709.5,01.21,0.508
2013-11-01 00:06:00,8666E-4,5C000000,-0724,0962,10736,025.0,045.2,0.386,709.5,01.21,0.508
2013-11-01 00:07:00,1090E-3,5C000000,-0724,0962,11052,025.0,045.2,0.386,709.5,01.21,0.508
2013-11-01 00:08:00,1032E-3,5C000000,-0724,0962,10870,025.0,045.2,0.386,709.5,01.21,0.508
2013-11-01 00:09:00,8434E-4,5C000000,-0724,0961,10867,025.0,045.3,0.386,709.5,01.21,0.508
2013-11-01 00:10:00,9377E-4,5C000000,-0724,0962,10869,025.0,045.2,0.386,709.5,01.21,0.508
2013-11-01 00:11:00,7997E-4,5C000000,-0724,0962,10947,025.0,045.2,0.386,709.5,01.21,0.508
2013-11-01 00:12:00,9684E-4,5C000000,-0724,0961,10750,025.0,045.2,0.386,709.5,01.21,0.508
2013-11-01 00:13:00,9158E-4,5C000000,-0724,0962,10913,025.0,045.2,0.386,709.5,01.21,0.508
2013-11-01 00:14:00,9152E-4,5C000000,-0724,0961,10940,025.0,045.3,0.386,709.5,01.21,0.508
2013-11-01 00:15:00,8731E-4,5C000000,-0724,0962,10969,025.1,045.2,0.386,709.5,01.21,0.508
2013-11-01 00:16:00,1086E-3,5C000000,-0724,0961,10877,025.0,045.2,0.386,709.5,01.21,0.508
2013-11-01 00:17:00,9045E-4,5C000000,-0724,0962,10852,025.1,045.3,0.386,709.5,01.21,0.508
2013-11-01 00:18:00,1035E-3,5C000000,-0724,0962,10785,025.1,045.3,0.386,709.5,01.21,0.508
2013-11-01 00:19:00,1025E-3,5C000000,-0724,0962,10884,025.1,045.3,0.386,709.5,01.21,0.508
2013-11-01 00:20:00,9259E-4,5C000000,-0724,0962,10810,025.1,045.2,0.386,709.5,01.21,0.508
2013-11-01 00:21:00,9257E-4,5C000000,-0724,0961,10863,025.1,045.2,0.386,709.4,01.21,0.508
2013-11-01 00:22:00,9267E-4,5C000000,-0724,0962,10843,025.1,045.3,0.386,709.4,01.21,0.508
2013-11-01 00:23:00,8278E-4,5C000000,-0724,0962,10935,025.1,045.3,0.386,709.4,01.21,0.508
2013-11-01 00:24:00,1124E-3,5C000000,-0724,0961,10873,025.1,045.3,0.386,709.5,01.21,0.508
2013-11-01 00:25:00,8754E-4,5C000000,-0724,0962,11056,025.1,045.2,0.386,709.5,01.21,0.508
2013-11-01 00:26:00,1058E-3,5C000000,-0724,0962,10814,025.1,045.2,0.386,709.5,01.21,0.508
2013-11-01 00:27:00,1028E-3,5C000000,-0724,0962,10932,025.1,045.3,0.386,709.5,01.21,0.508
2013-11-01 00:28:00,8855E-4,5C000000,-0724,0962,11042,025.1,045.2,0.386,709.5,01.21,0.508
2013-11-01 00:29:00,9300E-4,5C000000,-0724,0962,10876,025.1,045.3,0.386,709.5,01.21,0.508
2013-11-01 00:30:00,9017E-4,5C000000,-0724,0962,10776,025.1,045.2,0.386,709.5,01.21,0.508
2013-11-01 00:31:00,9604E-4,5C000000,-0724,0962,10838,025.1,045.3,0.386,709.5,01.21,0.508
2013-11-01 00:32:00,1022E-3,5C000000,-0724,0961,10822,025.1,045.3,0.386,709.5,01.21,0.508
2013-11-01 00:33:00,9490E-4,5C000000,-0724,0962,10952,025.1,045.3,0.386,709.4,01.21,0.508
2013-11-01 00:34:00,9463E-4,5C000000,-0724,0963,10900,025.1,045.3,0.386,709.5,01.21,0.508
2013-11-01 00:35:00,1011E-3,5C000000,-0724,0963,10955,025.1,045.3,0.386,709.4,01.21,0.508
2013-11-01 00:36:00,1007E-3,5C000000,-0724,0962,10981,025.1,045.3,0.386,709.4,01.21,0.508
2013-11-01 00:37:00,9822E-4,5C000000,-0724,0962,10878,025.1,045.2,0.386,709.5,01.21,0.508
2013-11-01 00:38:00,9957E-4,5C000000,-0724,0962,10945,025.2,045.3,0.386,709.4,01.21,0.508
2013-11-01 00:39:00,9181E-4,5C000000,-0724,0962,11003,025.2,045.3,0.386,709.4,01.21,0.508
2013-11-01 00:40:00,1044E-3,5C000000,-0724,0963,10866,025.2,045.3,0.386,709.4,01.21,0.508
2013-11-01 00:41:00,1035E-3,5C000000,-0724,0962,10944,025.2,045.3,0.386,709.4,01.21,0.508
2013-11-01 00:42:00,9110E-4,5C000000,-0724,0963,10835,025.2,045.3,0.386,709.4,01.21,0.508
2013-11-01 00:43:00,9562E-4,5C000000,-0724,0963,10943,025.2,045.3,0.386,709.4,01.21,0.508
2013-11-01 00:44:00,1006E-3,5C000000,-0724,0962,10869,025.2,045.3,0.386,709.4,01.21,0.508
2013-11-01 00:45:00,9660E-4,5C000000,-0724,0961,11006,025.2,045.2,0.386,709.4,01.21,0.508
2013-11-01 00:46:00,9877E-4,5C000000,-0724,0963,10847,025.2,045.3,0.386,709.4,01.21,0.508
2013-11-01 00:47:00,9077E-4,5C000000,-0724,0962,10946,025.2,045.3,0.386,709.4,01.21,0.508
2013-11-01 00:48:00,9424E-4,5C000000,-0724,0963,10854,025.2,045.3,0.386,709.4,01.21,0.508
2013-11-01 00:49:00,9437E-4,5C000000,-0724,0962,10946,025.2,045.3,0.385,709.4,01.21,0.508
2013-11-01 00:50:00,1022E-3,5C000000,-0724,0963,10775,025.2,045.3,0.386,709.4,01.21,0.508
2013-11-01 00:51:00,8936E-4,5C000000,-0724,0963,10961,025.2,045.2,0.385,709.4,01.21,0.508
2013-11-01 00:52:00,8254E-4,5C000000,-0724,0962,10876,025.2,045.2,0.386,709.4,01.21,0.508
2013-11-01 00:53:00,9434E-4,5C000000,-0724,0962,11033,025.2,045.3,0.385,709.3,01.21,0.508
2013-11-01 00:54:00,9239E-4,5C000000,-0724,0962,10899,025.2,045.3,0.386,709.3,01.21,0.508
2013-11-01 00:55:00,1055E-3,5C000000,-0724,0962,10979,025.2,045.2,0.385,709.3,01.21,0.508
2013-11-01 00:56:00,9895E-4,5C000000,-0724,0963,10959,025.2,045.3,0.386,709.3,01.21,0.508
2013-11-01 00:57:00,1024E-3,5C000000,-0724,0962,10827,025.2,045.3,0.385,709.3,01.21,0.508
2013-11-01 00:58:00,9693E-4,5C000000,-0724,0962,10772,025.2,045.2,0.386,709.3,01.21,0.508
2013-11-01 00:59:00,9661E-4,5C000000,-0724,0962,10874,025.2,045.2,0.386,709.3,01.21,0.508
2013-11-01 01:00:00,1009E-3,5C000000,-0724,0963,10886,025.2,045.2,0.386,709.3,01.21,0.508
2013-11-01 01:01:00,9052E-4,5C000000,-0724,0962,10733,025.2,045.3,0.386,709.3,01.21,0.508
2013-11-01 01:02:00,1019E-3,5C000000,-0724,0962,10847,025.2,045.3,0.386,709.3,01.21,0.508
2013-11-01 01:03:00,1017E-3,5C000000,-0724,0962,10820,025.3,045.3,0.386,709.2,01.21,0.508
2013-11-01 01:04:00,1047E-3,5C000000,-0724,0962,11063,025.3,045.3,0.386,709.2,01.21,0.508
2013-11-01 01:05:00,8500E-4,5C000000,-0724,0963,10903,025.3,045.3,0.386,709.2,01.21,0.508
2013-11-01 01:06:00,8438E-4,5C000000,-0724,0962,10924,025.2,045.3,0.386,709.2,01.21,0.508
2013-11-01 01:07:00,9531E-4,5C000000,-0724,0963,10858,025.2,045.2,0.386,709.3,01.21,0.508
2013-11-01 01:08:00,8743E-4,5C000000,-0724,0962,10974,025.3,045.3,0.385,709.3,01.21,0.508
2013-11-01 01:09:00,8817E-4,5C000000,-0724,0963,10895,025.2,045.3,0.386,709.3,01.21,0.508
2013-11-01 01:10:00,8588E-4,5C000000,-0724,0963,10966,025.3,045.2,0.385,709.3,01.21,0.508
2013-11-01 01:11:00,9701E-4,5C000000,-0724,0963,10981,025.3,045.2,0.386,709.3,01.21,0.508
2013-11-01 01:12:00,8718E-4,5C000000,-0724,0962,10991,025.3,045.3,0.385,709.3,01.21,0.508
2013-11-01 01:13:00,1008E-3,5C000000,-0724,0962,10764,025.2,045.3,0.386,709.3,01.21,0.508
2013-11-01 01:14:00,8790E-4,5C000000,-0724,0962,10939,025.3,045.3,0.385,709.3,01.21,0.508
2013-11-01 01:15:00,8618E-4,5C000000,-0724,0963,10868,025.2,045.3,0.386,709.3,01.21,0.508
2013-11-01 01:16:00,8707E-4,5C000000,-0724,0962,10957,025.2,045.2,0.385,709.3,01.21,0.508
2013-11-01 01:17:00,8854E-4,5C000000,-0724,0962,10993,025.3,045.3,0.386,709.3,01.21,0.508
2013-11-01 01:18:00,8981E-4,5C000000,-0724,0962,10865,025.3,045.3,0.385,709.3,01.21,0.508
2013-11-01 01:19:00,9248E-4,5C000000,-0724,0962,10995,025.3,045.2,0.386,709.3,01.21,0.508
2013-11-01 01:20:00,8635E-4,5C000000,-0724,0962,10915,025.3,045.2,0.386,709.3,01.21,0.508
2013-11-01 01:21:00,8453E-4,5C000000,-0724,0962,10969,025.3,045.2,0.386,709.3,01.21,0.508
2013-11-01 01:22:00,9025E-4,5C000000,-0724,0962,11013,025.3,045.3,0.386,709.3,01.21,0.508
2013-11-01 01:23:00,8664E-4,5C000000,-0724,0962,10925,025.3,045.3,0.385,709.3,01.21,0.508
2013-11-01 01:24:00,1030E-3,5C000000,-0724,0962,10771,025.3,045.3,0.386,709.3,01.21,0.508
2013-11-01 01:25:00,9270E-4,5C000000,-0724,0962,10952,025.3,045.3,0.385,709.4,01.21,0.508
2013-11-01 01:26:00,8876E-4,5C000000,-0724,0963,10841,025.3,045.3,0.386,709.4,01.21,0.508
2013-11-01 01:27:00,8817E-4,5C000000,-0724,0963,10909,025.3,045.3,0.385,709.3,01.21,0.508
2013-11-01 01:28:00,9749E-4,5C000000,-0724,0962,10889,025.3,045.3,0.386,709.3,01.21,0.508
2013-11-01 01:29:00,9963E-4,5C000000,-0724,0962,10943,025.3,045.3,0.385,709.3,01.21,0.508
2013-11-01 01:30:00,9956E-4,5C000000,-0724,0963,10993,025.3,045.3,0.386,709.3,01.21,0.508
2013-11-01 01:31:00,8835E-4,5C000000,-0724,0963,10823,025.3,045.2,0.385,709.3,01.21,0.508
2013-11-01 01:32:00,8576E-4,5C000000,-0724,0962,10891,025.3,045.3,0.386,709.3,01.21,0.508
2013-11-01 01:33:00,9064E-4,5C000000,-0724,0963,11022,025.3,045.2,0.385,709.3,01.21,0.508
2013-11-01 01:34:00,7973E-4,5C000000,-0724,0962,10962,025.3,045.2,0.386,709.3,01.21,0.508
2013-11-01 01:35:00,8189E-4,5C000000,-0724,0963,10865,025.3,045.2,0.386,709.3,01.21,0.508
2013-11-01 01:36:00,8126E-4,5C000000,-0724,0962,10928,025.3,045.3,0.385,709.3,01.21,0.508
2013-11-01 01:37:00,8607E-4,5C000000,-0724,0962,10770,025.3,045.3,0.386,709.3,01.21,0.508
2013-11-01 01:38:00,1020E-3,5C000000,-0724,0962,10903,025.3,045.3,0.385,709.3,01.21,0.508
2013-11-01 01:39:00,8107E-4,5C000000,-0724,0962,10888,025.3,045.3,0.386,709.3,01.21,0.508
2013-11-01 01:40:00,1003E-3,5C000000,-0724,0963,10732,025.3,045.3,0.385,709.3,01.21,0.508
2013-11-01 01:41:00,8616E-4,5C000000,-0724,0962,10850,025.3,045.2,0.386,709.3,01.21,0.508
2013-11-01 01:42:00,8957E-4,5C000000,-0724,0962,10794,025.3,045.2,0.385,709.3,01.21,0.508
2013-11-01 01:43:00,8753E-4,5C000000,-0724,0962,10867,025.3,045.3,0.386,709.3,01.21,0.508
2013-11-01 01:44:00,8917E-4,5C000000,-0724,0963,10803,025.3,045.3,0.385,709.4,01.21,0.508
2013-11-01 01:45:00,8356E-4,5C000000,-0724,0963,10735,025.3,045.3,0.386,709.3,01.21,0.508
2013-11-01 01:46:00,8285E-4,5C000000,-0724,0962,10841,025.3,045.2,0.386,709.4,01.21,0.508
2013-11-01 01:47:00,9058E-4,5C000000,-0724,0963,10836,025.3,045.2,0.385,709.4,01.21,0.508
2013-11-01 01:48:00,8135E-4,5C000000,-0724,0962,10938,025.3,045.3,0.386,709.4,01.21,0.508
2013-11-01 01:49:00,9005E-4,5C000000,-0724,0962,10856,025.3,045.3,0.385,709.4,01.21,0.508
2013-11-01 01:50:00,8218E-4,5C000000,-0724,0962,11003,025.3,045.3,0.386,709.4,01.21,0.508
2013-11-01 01:51:00,8395E-4,5C000000,-0724,0963,10902,025.3,045.3,0.385,709.3,01.21,0.508
2013-11-01 01:52:00,8506E-4,5C000000,-0724,0962,10797,025.3,045.3,0.386,709.4,01.21,0.508
2013-11-01 01:53:00,8349E-4,5C000000,-0724,0963,11042,025.3,045.3,0.385,709.4,01.21,0.508
2013-11-01 01:54:00,8071E-4,5C000000,-0724,0962,11023,025.3,045.2,0.386,709.4,01.21,0.508
2013-11-01 01:55:00,8459E-4,5C000000,-0724,0962,10848,025.3,045.2,0.385,709.4,01.21,0.508
2013-11-01 01:56:00,8728E-4,5C000000,-0724,0962,10907,025.3,045.3,0.386,709.4,01.21,0.508
2013-11-01 01:57:00,9132E-4,5C000000,-0724,0962,10965,025.3,045.3,0.385,709.4,01.21,0.508
2013-11-01 01:58:00,8565E-4,5C000000,-0724,0963,10813,025.3,045.3,0.386,709.4,01.21,0.508
2013-11-01 01:59:00,7981E-4,5C000000,-0724,0962,10908,025.3,045.3,0.386,709.4,01.21,0.508
2013-11-01 02:00:00,7778E-4,5C000000,-0724,0962,10801,025.3,045.2,0.385,709.4,01.21,0.508
2013-11-01 02:01:00,9238E-4,5C000000,-0724,0963,10851,025.3,045.2,0.386,709.4,01.21,0.508
2013-11-01 02:02:00,8026E-4,5C000000,-0724,0963,10815,025.3,045.2,0.385,709.4,01.21,0.508
2013-11-01 02:03:00,8885E-4,5C000000,-0724,0963,10982,025.3,045.3,0.386,709.4,01.21,0.508
2013-11-01 02:04:00,7093E-4,5C000000,-0724,0962,10959,025.3,045.2,0.385,709.4,01.21,0.508
2013-11-01 02:05:00,9386E-4,5C000000,-0724,0963,10872,025.3,045.2,0.386,709.4,01.21,0.508
2013-11-01 02:06:00,7973E-4,5C000000,-0724,0963,10926,025.4,045.3,0.385,709.4,01.21,0.508
2013-11-01 02:07:00,7726E-4,5C000000,-0724,0963,10858,025.3,045.3,0.386,709.4,01.21,0.508
2013-11-01 02:08:00,7543E-4,5C000000,-0724,0963,10968,025.3,045.3,0.386,709.4,01.21,0.508
2013-11-01 02:09:00,8347E-4,5C000000,-0724,0962,10953,025.3,045.3,0.385,709.4,01.21,0.508
2013-11-01 02:10:00,6887E-4,5C000000,-0724,0963,10881,025.3,045.3,0.386,709.4,01.21,0.508
2013-11-01 02:11:00,7011E-4,5C000000,-0724,0963,10886,025.3,045.2,0.385,709.4,01.21,0.508
2013-11-01 02:12:00,6751E-4,5C000000,-0724,0963,10835,025.3,045.2,0.386,709.4,01.21,0.508
2013-11-01 02:13:00,6907E-4,5C000000,-0724,0962,10936,025.3,045.3,0.385,709.4,01.21,0.508
2013-11-01 02:14:00,6709E-4,5C000000,-0724,0962,10929,025.3,045.3,0.386,709.4,01.21,0.508
2013-11-01 02:15:00,6896E-4,5C000000,-0724,0963,10974,025.3,045.2,0.385,709.4,01.21,0.508
2013-11-01 02:16:00,6772E-4,5C000000,-0724,0963,10981,025.3,045.2,0.386,709.4,01.21,0.508
2013-11-01 02:17:00,6515E-4,5C000000,-0724,0964,10977,025.3,045.3,0.385,709.4,01.21,0.508
2013-11-01 02:18:00,6466E-4,5C000000,-0724,0963,10782,025.4,045.3,0.385,709.4,01.21,0.508
2013-11-01 02:19:00,5587E-4,5C000000,-0724,0962,11001,025.3,045.3,0.385,709.4,01.21,0.508
2013-11-01 02:20:00,5826E-4,5C000000,-0724,0963,10915,025.4,045.3,0.385,709.4,01.21,0.508
2013-11-01 02:21:00,6275E-4,5C000000,-0724,0963,10925,025.4,045.3,0.386,709.4,01.21,0.508
2013-11-01 02:22:00,6604E-4,5C000000,-0724,0963,10865,025.3,045.3,0.385,709.4,01.21,0.508
2013-11-01 02:23:00,5670E-4,5C000000,-0724,0962,10871,025.3,045.3,0.386,709.4,01.21,0.508
2013-11-01 02:24:00,7229E-4,5C000000,-0724,0963,10901,025.4,045.3,0.385,709.4,01.21,0.508
2013-11-01 02:25:00,5274E-4,5C000000,-0724,0963,10785,025.3,045.3,0.386,709.4,01.21,0.508
2013-11-01 02:26:00,6018E-4,5C000000,-0724,0963,10845,025.4,045.3,0.385,709.4,01.21,0.508
2013-11-01 02:27:00,7140E-4,5C000000,-0724,0962,10906,025.4,045.3,0.386,709.4,01.21,0.508
2013-11-01 02:28:00,6515E-4,5C000000,-0724,0963,10903,025.4,045.3,0.385,709.4,01.21,0.508
2013-11-01 02:29:00,7557E-4,5C000000,-0724,0963,10877,025.4,045.2,0.385,709.4,01.21,0.508
2013-11-01 02:30:00,6148E-4,5C000000,-0724,0963,11028,025.4,045.3,0.386,709.3,01.21,0.508
2013-11-01 02:31:00,5673E-4,5C000000,-0724,0963,10995,025.4,045.3,0.385,709.3,01.21,0.508
2013-11-01 02:32:00,4406E-4,5C000000,-0724,0962,10944,025.3,045.3,0.386,709.3,01.21,0.508
2013-11-01 02:33:00,5535E-4,5C000000,-0724,0963,10861,025.4,045.3,0.385,709.3,01.21,0.508
2013-11-01 02:34:00,5860E-4,5C000000,-0724,0963,10907,025.3,045.3,0.386,709.3,01.21,0.508
2013-11-01 02:35:00,4413E-4,5C000000,-0724,0963,10872,025.4,045.3,0.385,709.3,01.21,0.508
2013-11-01 02:36:00,3709E-4,5C000000,-0724,0963,10937,025.4,045.2,0.386,709.3,01.21,0.508
2013-11-01 02:37:00,2993E-4,5C000000,-0724,0963,11027,025.4,045.3,0.385,709.3,01.21,0.508
2013-11-01 02:38:00,3050E-4,5C000000,-0724,0963,10948,025.4,045.3,0.385,709.3,01.21,0.508
2013-11-01 02:39:00,3131E-4,5C000000,-0724,0962,10860,025.4,045.3,0.385,709.3,01.21,0.508
2013-11-01 02:40:00,3464E-4,5C000000,-0724,0963,10934,025.4,045.3,0.385,709.3,01.21,0.508
2013-11-01 02:41:00,3031E-4,5C000000,-0724,0963,10970,025.4,045.3,0.386,709.3,01.21,0.508
2013-11-01 02:42:00,2637E-4,5C000000,-0724,0963,10845,025.4,045.3,0.385,709.3,01.21,0.508
2013-11-01 02:43:00,3385E-4,5C000000,-0724,0963,10821,025.4,045.3,0.386,709.3,01.21,0.508
2013-11-01 02:44:00,4095E-4,5C000000,-0724,0962,10940,025.4,045.3,0.385,709.3,01.21,0.508
2013-11-01 02:45:00,2528E-4,5C000000,-0724,0963,11004,025.4,045.3,0.386,709.3,01.21,0.508
2013-11-01 02:46:00,2278E-4,5C000000,-0724,0963,10948,025.4,045.3,0.385,709.3,01.21,0.508
2013-11-01 02:47:00,3342E-4,5C000000,-0724,0963,10957,025.4,045.3,0.386,709.3,01.21,0.508
2013-11-01 02:48:00,4301E-4,5C000000,-0724,0964,10890,025.4,045.3,0.385,709.4,01.21,0.508
2013-11-01 02:49:00,3701E-4,5C000000,-0724,0963,11006,025.4,045.2,0.386,709.4,01.21,0.508
2013-11-01 02:50:00,4043E-4,5C000000,-0724,0962,10977,025.4,045.3,0.385,709.4,01.21,0.508
2013-11-01 02:51:00,2864E-4,5C000000,-0724,0962,10901,025.4,045.3,0.385,709.4,01.21,0.508
2013-11-01 02:52:00,2469E-4,5C000000,-0724,0962,10947,025.4,045.3,0.386,709.4,01.21,0.508
2013-11-01 02:53:00,3102E-4,5C000000,-0724,0962,10901,025.4,045.3,0.385,709.4,01.21,0.508
2013-11-01 02:54:00,2881E-4,5C000000,-0724,0963,10891,025.4,045.3,0.386,709.4,01.21,0.508
2013-11-01 02:55:00,2058E-4,5C000000,-0724,0963,10889,025.4,045.2,0.385,709.4,01.21,0.508
2013-11-01 02:56:00,4136E-4,5C000000,-0724,0962,10915,025.4,045.2,0.386,709.4,01.21,0.508
2013-11-01 02:57:00,2396E-4,5C000000,-0724,0964,10927,025.4,045.2,0.385,709.5,01.21,0.508
2013-11-01 02:58:00,2413E-4,5C000000,-0724,0962,10907,025.4,045.3,0.385,709.5,01.21,0.508
2013-11-01 02:59:00,3533E-4,5C000000,-0724,0963,10854,025.4,045.3,0.386,709.5,01.21,0.508
2013-11-01 03:00:00,2588E-4,5C000000,-0724,0962,10964,025.4,045.3,0.385,709.5,01.21,0.508
2013-11-01 03:01:00,3642E-4,5C000000,-0724,0962,10995,025.4,045.3,0.386,709.5,01.21,0.508
2013-11-01 03:02:00,3160E-4,5C000000,-0724,0963,10895,025.4,045.2,0.385,709.5,01.21,0.508
2013-11-01 03:03:00,1565E-4,5C000000,-0724,0963,10933,025.4,045.2,0.386,709.5,01.21,0.508
2013-11-01 03:04:00,2839E-4,5C000000,-0724,0963,10920,025.4,045.3,0.385,709.5,01.21,0.508
2013-11-01 03:05:00,2651E-4,5C000000,-0724,0962,10864,025.4,045.3,0.385,709.5,01.21,0.508
2013-11-01 03:06:00,3281E-4,5C000000,-0724,0963,10844,025.4,045.3,0.386,709.5,01.21,0.508
2013-11-01 03:07:00,2695E-4,5C000000,-0724,0963,11003,025.4,045.3,0.385,709.5,01.21,0.508
2013-11-01 03:08:00,2566E-4,5C000000,-0724,0963,10898,025.5,045.3,0.386,709.5,01.21,0.508
2013-11-01 03:09:00,3003E-4,5C000000,-0724,0963,10968,025.4,045.3,0.385,709.5,01.21,0.508
2013-11-01 03:10:00,2663E-4,5C000000,-0724,0963,10888,025.4,045.2,0.386,709.5,01.21,0.508
2013-11-01 03:11:00,3203E-4,5C000000,-0724,0962,10952,025.4,045.2,0.385,709.5,01.21,0.508
2013-11-01 03:12:00,2453E-4,5C000000,-0724,0962,10722,025.4,045.2,0.385,709.5,01.21,0.508
2013-11-01 03:13:00,2764E-4,5C000000,-0724,0963,10793,025.4,045.3,0.385,709.6,01.21,0.508
2013-11-01 03:14:00,2720E-4,5C000000,-0724,0963,10788,025.5,045.3,0.385,709.6,01.21,0.508
2013-11-01 03:15:00,2382E-4,5C000000,-0724,0963,10937,025.5,045.3,0.386,709.6,01.21,0.508
2013-11-01 03:16:00,3210E-4,5C000000,-0724,0962,10861,025.4,045.3,0.385,709.6,01.21,0.508
2013-11-01 03:17:00,2850E-4,5C000000,-0724,0962,10892,025.4,045.3,0.385,709.6,01.21,0.508
2013-11-01 03:18:00,2934E-4,5C000000,-0724,0963,10866,025.4,045.3,0.385,709.6,01.21,0.508
2013-11-01 03:19:00,2915E-4,5C000000,-0724,0962,10779,025.4,045.3,0.385,709.6,01.21,0.508
2013-11-01 03:20:00,3194E-4,5C000000,-0724,0963,11020,025.4,045.3,0.386,709.6,01.21,0.508
2013-11-01 03:21:00,3133E-4,5C000000,-0724,0963,10872,025.4,045.3,0.385,709.6,01.21,0.508
2013-11-01 03:22:00,2525E-4,5C000000,-0724,0963,10996,025.4,045.3,0.386,709.6,01.21,0.508
2013-11-01 03:23:00,3443E-4,5C000000,-0724,0962,10982,025.4,045.3,0.385,709.6,01.21,0.508
2013-11-01 03:24:00,2500E-4,5C000000,-0724,0962,10879,025.5,045.2,0.385,709.6,01.21,0.508
2013-11-01 03:25:00,2137E-4,5C000000,-0724,0962,10889,025.5,045.2,0.386,709.6,01.21,0.508
2013-11-01 03:26:00,3202E-4,5C000000,-0724,0963,10967,025.5,045.3,0.385,709.5,01.21,0.508
2013-11-01 03:27:00,3591E-4,5C000000,-0724,0963,10961,025.5,045.3,0.385,709.6,01.21,0.508
2013-11-01 03:28:00,2780E-4,5C000000,-0724,0962,10834,025.5,045.3,0.385,709.6,01.21,0.508
2013-11-01 03:29:00,2322E-4,5C000000,-0724,0962,10844,025.5,045.3,0.385,709.6,01.21,0.508
2013-11-01 03:30:00,2562E-4,5C000000,-0724,0963,11010,025.4,045.2,0.386,709.6,01.21,0.508
2013-11-01 03:31:00,3252E-4,5C000000,-0724,0962,10898,025.5,045.2,0.385,709.6,01.21,0.508
2013-11-01 03:32:00,4237E-4,5C000000,-0724,0963,10966,025.4,045.2,0.386,709.6,01.21,0.508
2013-11-01 03:33:00,2979E-4,5C000000,-0724,0962,10938,025.4,045.3,0.385,709.7,01.21,0.508
2013-11-01 03:34:00,2845E-4,5C000000,-0724,0962,10980,025.5,045.3,0.385,709.7,01.21,0.508
2013-11-01 03:35:00,2741E-4,5C000000,-0724,0964,10870,025.5,045.3,0.386,709.7,01.21,0.508
2013-11-01 03:36:00,2590E-4,5C000000,-0724,0963,10932,025.5,045.3,0.385,709.7,01.21,0.508
2013-11-01 03:37:00,1768E-4,5C000000,-0724,0962,10936,025.5,045.2,0.385,709.7,01.21,0.508
2013-11-01 03:38:00,2977E-4,5C000000,-0724,0963,10879,025.4,045.2,0.386,709.7,01.21,0.508
2013-11-01 03:39:00,3595E-4,5C000000,-0724,0962,10898,025.5,045.3,0.385,709.7,01.21,0.508
2013-11-01 03:40:00,3263E-4,5C000000,-0724,0963,10878,025.5,045.3,0.386,709.8,01.21,0.508
2013-11-01 03:41:00,3295E-4,5C000000,-0724,0962,10908,025.4,045.2,0.385,709.7,01.21,0.508
2013-11-01 03:42:00,2973E-4,5C000000,-0724,0963,10919,025.4,045.3,0.385,709.8,01.21,0.508
2013-11-01 03:43:00,1784E-4,5C000000,-0724,0962,10916,025.4,045.3,0.386,709.8,01.21,0.508
2013-11-01 03:44:00,3211E-4,5C000000,-0724,0963,10840,025.5,045.3,0.385,709.8,01.21,0.508
2013-11-01 03:45:00,3133E-4,5C000000,-0724,0963,10942,025.5,045.2,0.386,709.8,01.21,0.508
2013-11-01 03:46:00,2668E-4,5C000000,-0724,0963,10826,025.4,045.3,0.386,709.7,01.21,0.508
2013-11-01 03:47:00,2361E-4,5C000000,-0724,0963,10899,025.4,045.2,0.385,709.7,01.21,0.508
2013-11-01 03:48:00,2365E-4,5C000000,-0724,0962,10890,025.5,045.3,0.386,709.7,01.21,0.508
2013-11-01 03:49:00,3451E-4,5C000000,-0724,0963,10807,025.5,045.3,0.385,709.7,01.21,0.508
2013-11-01 03:50:00,3482E-4,5C000000,-0724,0964,10953,025.4,045.2,0.385,709.7,01.21,0.508
2013-11-01 03:51:00,2749E-4,5C000000,-0724,0962,10847,025.5,045.2,0.386,709.7,01.21,0.508
2013-11-01 03:52:00,2270E-4,5C000000,-0724,0964,10943,025.4,045.2,0.385,709.7,01.21,0.508
2013-11-01 03:53:00,2575E-4,5C000000,-0724,0963,10765,025.4,045.3,0.385,709.8,01.21,0.508
2013-11-01 03:54:00,2483E-4,5C000000,-0724,0963,10765,025.4,045.3,0.386,709.7,01.21,0.508
2013-11-01 03:55:00,2298E-4,5C000000,-0724,0964,10992,025.5,045.3,0.385,709.7,01.21,0.508
2013-11-01 03:56:00,2242E-4,5C000000,-0724,0963,10889,025.4,045.2,0.385,709.6,01.21,0.508
2013-11-01 03:57:00,2559E-4,5C000000,-0724,0964,10827,025.4,045.2,0.386,709.7,01.21,0.508
2013-11-01 03:58:00,2714E-4,5C000000,-0724,0962,10745,025.4,045.3,0.385,709.7,01.21,0.508
2013-11-01 03:59:00,2269E-4,5C000000,-0724,0964,10783,025.4,045.3,0.386,709.7,01.21,0.508
2013-11-01 04:00:00,2930E-4,5C000000,-0724,0962,10841,025.4,045.3,0.385,709.8,01.21,0.508
2013-11-01 04:01:00,2503E-4,5C000000,-0724,0963,10853,025.4,045.3,0.385,709.7,01.21,0.508
2013-11-01 04:02:00,3269E-4,5C000000,-0724,0963,10932,025.4,045.3,0.386,709.8,01.21,0.508
2013-11-01 04:03:00,2411E-4,5C000000,-0724,0964,11006,025.4,045.3,0.385,709.9,01.21,0.508
2013-11-01 04:04:00,1731E-4,5C000000,-0724,0963,10923,025.4,045.3,0.385,709.9,01.21,0.508
2013-11-01 04:05:00,3285E-4,5C000000,-0724,0963,10940,025.4,045.3,0.386,709.9,01.21,0.508
2013-11-01 04:06:00,3636E-4,5C000000,-0724,0963,10880,025.4,045.3,0.385,709.9,01.21,0.508
2013-11-01 04:07:00,2706E-4,5C000000,-0724,0962,10972,025.4,045.3,0.385,709.9,01.21,0.508
2013-11-01 04:08:00,3093E-4,5C000000,-0724,0963,10880,025.4,045.3,0.386,710.0,01.21,0.508
2013-11-01 04:09:00,2682E-4,5C000000,-0724,0963,10818,025.4,045.3,0.385,709.9,01.21,0.508
2013-11-01 04:10:00,3642E-4,5C000000,-0724,0963,10955,025.4,045.3,0.385,709.9,01.21,0.508
2013-11-01 04:11:00,2247E-4,5C000000,-0724,0962,10899,025.4,045.3,0.386,710.0,01.21,0.508
2013-11-01 04:12:00,4080E-4,5C000000,-0724,0962,10923,025.4,045.2,0.385,710.0,01.21,0.508
2013-11-01 04:13:00,2995E-4,5C000000,-0724,0964,10869,025.4,045.2,0.386,710.0,01.21,0.508
2013-11-01 04:14:00,1895E-4,5C000000,-0724,0963,10753,025.4,045.2,0.386,710.0,01.21,0.508
2013-11-01 04:15:00,3937E-4,5C000000,-0724,0964,11079,025.4,045.3,0.385,710.0,01.21,0.508
2013-11-01 04:16:00,3397E-4,5C000000,-0724,0962,10908,025.4,045.3,0.386,710.0,01.21,0.508
2013-11-01 04:17:00,1957E-4,5C000000,-0724,0963,10920,025.4,045.3,0.386,709.9,01.21,0.508
2013-11-01 04:18:00,4631E-4,5C000000,-0724,0963,10936,025.4,045.2,0.385,710.0,01.21,0.508
2013-11-01 04:19:00,2320E-4,5C000000,-0724,0962,10846,025.4,045.3,0.386,709.9,01.21,0.508
2013-11-01 04:20:00,3583E-4,5C000000,-0724,0964,11077,025.4,045.2,0.386,710.0,01.21,0.508